Location: Caltech
(34.1382°N, 118.1253°W)
Time: 13:25:02
(UTC-07:00)

KITSAT 1 - Visible Passes

Search period start: 02 August 2015 00:00
Search period end: 12 August 2015 00:00
Orbit: 1305 x 1325 km, 66.1° (Epoch: 02 August)

Date Brightness Start Highest point End Pass type
(mag) Time Alt. Az. Time Alt. Az. Time Alt. Az.
02 Aug 11.8 01:13:41 21° E 01:13:41 21° E 01:18:03 10° NE visible
02 Aug 10.2 03:05:39 60° W 03:06:49 66° WNW 03:14:54 10° NNE visible
02 Aug 12.0 04:59:41 10° WNW 05:04:03 15° NW 05:08:02 10° N visible
03 Aug 11.2 01:29:23 33° E 01:29:23 33° E 01:35:03 10° NE visible
03 Aug 10.7 03:21:21 40° W 03:23:06 45° NW 03:30:46 10° NNE visible
04 Aug 10.7 01:45:03 50° E 01:45:03 50° E 01:51:36 10° NE visible
04 Aug 11.2 03:37:01 27° W 03:39:32 31° NW 03:46:29 10° N visible
05 Aug 10.3 02:00:41 71° NE 02:00:41 71° NE 02:07:51 10° NNE visible
05 Aug 11.7 03:52:39 17° WNW 03:56:10 22° NW 04:01:59 10° N visible
06 Aug 12.0 00:24:19 17° ENE 00:24:19 17° ENE 00:26:56 10° ENE visible
06 Aug 10.3 02:16:17 67° NW 02:16:17 67° NW 02:23:54 10° NNE visible
06 Aug 12.1 04:08:27 10° WNW 04:12:58 15° NW 04:17:08 10° N visible
07 Aug 11.5 00:39:53 27° ENE 00:39:53 27° ENE 00:44:00 10° NE visible
07 Aug 10.7 02:31:51 46° WNW 02:32:04 46° NW 02:39:47 10° NNE visible
07 Aug 12.4 04:28:55 10° NW 04:29:58 10° NNW 04:30:34 10° NNW visible
08 Aug 11.1 00:55:25 39° ENE 00:55:25 39° ENE 01:00:34 10° NE visible
08 Aug 11.2 02:47:23 31° WNW 02:48:29 32° NW 02:55:30 10° N visible
09 Aug 10.7 01:10:56 53° NE 01:10:56 53° NE 01:16:50 10° NNE visible
09 Aug 11.7 03:02:53 20° WNW 03:05:06 22° NW 03:11:02 10° N visible
09 Aug 12.1 23:34:27 14° ENE 23:34:27 14° ENE 23:35:50 10° ENE visible
10 Aug 10.6 01:26:24 57° N 01:26:24 57° N 01:32:54 10° NNE visible
10 Aug 12.1 03:18:21 12° WNW 03:21:55 15° NW 03:26:13 10° N visible
10 Aug 11.7 23:49:53 22° ENE 23:49:53 22° ENE 23:52:56 10° NE visible
11 Aug 10.9 01:41:50 46° NW 01:41:50 46° NW 01:48:48 10° NNE visible
11 Aug 12.4 03:37:12 10° NW 03:38:53 10° NNW 03:40:06 10° NNW visible
